Regional Weather Roundup
Issued by NWS

Home | Current Version | Previous Version | Text Only | Print | Product List | Glossary Off
Versions: 1 2 3 4 5 6 7 8 9 10 11 12 13 14 15 16 17 18 19 20 21 22 23 24 25 26 27 28 29 30 31 32 33 34 35 36 37 38 39 40 41 42 43 44 45 46 47 48 49 50

000
ASUS43 KMKX 262200
RWRWI

WISCONSIN REGIONAL WEATHER ROUNDUP
NATIONAL WEATHER SERVICE MILWAUKEE/SULLIVAN WI
500 PM CDT WED JUL 26 2017

NOTE: "FAIR" INDICATES FEW OR NO CLOUDS BELOW 12,000 FEET WITH NO
SIGNIFICANT WEATHER AND/OR OBSTRUCTIONS TO VISIBILITY.

WIZ001-002-006>008-014>016-023>028-262300-
NORTHWEST WISCONSIN

CITY           SKY/WX    TMP DP  RH WIND       PRES   REMARKS
SUPERIOR ARPT  NOT AVBL
ASHLAND        MOSUNNY   81  62  52 NW10      29.97S HX  82
HAYWARD        SUNNY     81  58  45 VRB5      29.99S HX  81
SIREN          SUNNY     82  58  44 NW9       29.99F HX  82
CUMBERLAND     SUNNY     79  57  47 NW9       29.99S HX  80
RICE LAKE      SUNNY     80  60  50 NW7       30.00S HX  81
CHETEK         SUNNY     81  63  54 CALM      29.99R HX  82
LADYSMITH      MOSUNNY   81  61  51 W10       30.00S HX  81
EAU CLAIRE     CLOUDY    77  71  82 S8        29.97F
MENOMONIE      PTSUNNY   79  69  70 NW8       29.98F HX  82
NEW RICHMOND   SUNNY     80  60  49 N8        29.99S HX  81
OSCEOLA        SUNNY     82  55  38 NW9       30.01S HX  81
$$

WIZ003>005-009-010-017-018-262300-
NORTH CENTRAL WISCONSIN

CITY           SKY/WX    TMP DP  RH WIND       PRES   REMARKS
MANITOWISH WTR MOSUNNY   80  59  49 NW12G17   29.98R HX  80
ARBOR VITAE    SUNNY     81  60  49 NW7       29.97F HX  81
WOODRUFF       SUNNY     81  60  49 NW7       29.97F HX  81
RHINELANDER    MOSUNNY   79  64  60 NW7       29.98F HX  81
EAGLE RIVER    CLOUDY    81  56  42 N7        29.97R HX  81
LAND O LAKES   SUNNY     81  54  39 NW9       29.99S HX  81
PHILLIPS       SUNNY     79  60  52 NW6       29.97F HX  80
TOMAHAWK       NOT AVBL
MEDFORD        CLOUDY    73  68  84 SW5       30.00R
MERRILL        CLOUDY    75  70  83 W6        29.98F
$$

WIZ029-030-035-036-043>047-262300-
CENTRAL WISCONSIN

CITY           SKY/WX    TMP DP  RH WIND       PRES   REMARKS
WAUSAU         CLOUDY    74  69  85 SW9       29.97S
MOSINEE        PTSUNNY   73  70  88 W8        30.00S
MARSHFIELD     CLOUDY    74  67  78 W8        29.99S
STEVENS POINT  CLOUDY    73  69  85 W6        29.98F
WAUPACA        LGT RAIN  79  71  76 CALM      29.97S HX  82
WAUTOMA        CLOUDY    78  73  84 S5        29.98R HX  81
WISC RAPIDS    CLOUDY    76  71  85 W7        29.99F
CAMP DOUGLAS   NOT AVBL
$$

WIZ011>013-019>022-031-037>040-048>050-262300-
NORTHEAST WISCONSIN

CITY           SKY/WX    TMP DP  RH WIND       PRES   REMARKS
ANTIGO         CLOUDY    73  69  86 W7        29.99F
SHAWANO        CLOUDY    78  69  75 W7        29.95F HX  80
OCONTO         CLOUDY    75  70  85 SW6       29.96F
STURGEON BAY     N/A     75  71  87 SW7       29.97S
GREEN BAY      LGT RAIN  76  75  97 S7        29.95F
MANITOWOC      NOT AVBL
APPLETON       CLOUDY    77  70  78 VRB6      29.95F
CLINTONVILLE   CLOUDY   N/A N/A N/A SW5       29.96F
OSHKOSH        CLOUDY    75  73  93 S8        29.96F FOG
$$

WIZ032>034-041-042-053>061-262300-
SOUTHWEST WISCONSIN

CITY           SKY/WX    TMP DP  RH WIND       PRES   REMARKS
LA CROSSE      CLOUDY    81  72  74 CALM      29.95F HX  85
SPARTA         CLOUDY    76  69  78 W3        29.97F
VIROQUA        CLOUDY    76  71  85 CALM      30.00F
BOSCOBEL       CLOUDY    80  73  79 CALM      29.97F HX  84
PRAIRIE DU CHI CLOUDY    78  70  77 W3        29.98R HX  80
PLATTEVILLE    CLOUDY    78  76  93 SW3       30.00S HX  82
$$

WIZ056-057-062-063-064-067-068-262300-
SOUTH CENTRAL WISCONSIN

CITY           SKY/WX    TMP DP  RH WIND       PRES   REMARKS
REEDSBURG      CLOUDY    74  74 100 SW5       30.00R
BARABOO/DELLS  CLOUDY    74  69  84 W6        30.02R
LONE ROCK      LGT RAIN  74  73  97 SE6       29.98F FOG
MINERAL POINT  HVY RAIN  77  75  94 CALM      30.00F
MADISON        CLOUDY    75  71  87 NE5       29.97F
MIDDLETON      CLOUDY    75  73  93 E7        29.99F
WATERTOWN      CLOUDY    73  73 100 NW9       30.01S
MONROE         CLOUDY    79  72  78 S5        29.98F HX  82
JANESVILLE     CLOUDY    82  73  74 SW6       29.97F HX  88
$$

WIZ051-052-058>065-066-070>072-262300-
SOUTHEAST WISCONSIN

CITY           SKY/WX    TMP DP  RH WIND       PRES   REMARKS
MILWAUKEE      CLOUDY    83  72  69 SW8       29.98F HX  88
WAUKESHA       CLOUDY    73  72  94 N6        30.01F THUNDER
MILWAUKEE/TIMM RAIN      75  68  78 N6        30.01S
RACINE         PTSUNNY   79  70  74 S8        30.00F HX  82
KENOSHA        CLOUDY    82  71  69 SE9       29.99F HX  86
FOND DU LAC    LGT RAIN  75  71  87 S13       29.98F FOG
SHEBOYGAN      LGT RAIN  74  73  97 SW10      30.03R
WEST BEND      RAIN      72  72 100 NW5       30.03R
JUNEAU         RAIN      71  70  96 SE7       30.01F
$$

LSZ147-162-262300-
LAKE SUPERIOR

STATION/POSITION TIME  TEMP    WIND        PRES    WAVE
                       AIR SEA DIR/SP/G            HT/PER
                 (UTC) (F)     (DEG/KT/KT) (MB)    (FT/S)
W MID LAKE BUOY  2050   59 52  250/ 10/ 10 1013.5F   1
DEVILS ISLAND    2100   71     230/ 15/ 17 1013.8F
PORT WING        1940   77     260/ 10/ 13 1014.6F
SAXON HARBOR     2140   79      CALM  /  1 1014.6S
$$

LMZ867-665-643>646-262300-
LAKE MICHIGAN

STATION/POSITION TIME  TEMP    WIND        PRES    WAVE
                       AIR SEA DIR/SP/G            HT/PER
                 (UTC) (F)     (DEG/KT/KT) (MB)    (FT/S)
CHAMBERS ISLAND  2140   73     190/  7/ 13 1013.5R
S GREEN BAY BUOY 2100   73 72  210/ 10/ 12 1014.7
N MID LAKE BUOY  2050   67 65  200/ 16/ 19 1014.2F   3/ 6
NORTHPORT PIER   2140   71     180/  6/ 11 1013.9S
KEWAUNEE LAKESHO 2130   68     180/  6/  8 1014.1F
SHEBOYGAN LAKESH 2100   68     150/ 15/ 16 1014.7F
PORT WASHINGTON  2130   71     160/  4/  6 1016.9R
ATWATER BUOY     2009   71 69  130/  6/  8 1016.1F
MILWAUKEE LAKESH 2130   71     130/  8/ 10   N/A
S MID LAKE BUOY  2050   73 71  140/ 10/ 12 1016.4F   2/ 4
KENOSHA   LAKESH 2100   73     170/  7/ 10 1015.6
$$

TC  - TEMPERATURE IN CELSIUS
VSB - VISIBILITY IN STATUTE MILES
WCI - WIND CHILL INDEX
HX  - HEAT INDEX





USA.gov is the U.S. government's official web portal to all federal, state and local government web resources and services.